THY6CX EDDK-LTFM

Flight info

Callsign THY6CX
Flight time N/A
Altitude 35000
Route KUMIK8F/13L KUMIK L603 TESGA DCT ESATI DCT OSBIT DCT TENLO DCT LAMSI DCT SITNI DCT SASAL DCT SOGMO DCT BABIT DCT ESIRI DCT ETIDA T390 RILEX
Aircraft B738/M-SDE2E3FGHIRWY/LB1

Departure

Time N/A
Airport Cologne Bonn Airport (EDDK)

Arrival

Time 2026-05-07 20:42
Airport İstanbul Airport (LTFM)
Time Latitude Longitude Altitude Speed Heading
2026-05-07 19:41 44.02257 21.91811 35060 ft 463 kts 136°
2026-05-07 19:41 44.00067 21.95091 35030 ft 463 kts 136°
2026-05-07 19:42 43.95683 22.01643 35053 ft 463 kts 136°
2026-05-07 19:42 43.91294 22.08188 35050 ft 464 kts 136°
2026-05-07 19:43 43.86890 22.14741 35054 ft 465 kts 136°
2026-05-07 19:43 43.82471 22.21301 35057 ft 466 kts 136°
2026-05-07 19:44 43.78042 22.27862 35056 ft 466 kts 136°
2026-05-07 19:44 43.73610 22.34414 35063 ft 467 kts 136°
2026-05-07 19:45 43.69240 22.40993 35052 ft 470 kts 131°
2026-05-07 19:45 43.67393 22.44729 35056 ft 473 kts 120°
2026-05-07 19:45 43.65885 22.48778 35072 ft 474 kts 118°
2026-05-07 19:46 43.62966 22.56950 35065 ft 475 kts 118°
2026-05-07 19:46 43.60025 22.65117 35057 ft 475 kts 118°
2026-05-07 19:47 43.57535 22.71918 35067 ft 474 kts 118°
2026-05-07 19:47 43.54544 22.80011 35063 ft 474 kts 119°
2026-05-07 19:48 43.51547 22.88085 35057 ft 473 kts 119°
2026-05-07 19:48 43.48569 22.96089 35073 ft 473 kts 119°
2026-05-07 19:49 43.45568 23.04134 35068 ft 472 kts 119°
2026-05-07 19:49 43.42562 23.12172 35061 ft 472 kts 119°
2026-05-07 19:50 43.39558 23.20181 35065 ft 471 kts 119°
2026-05-07 19:50 43.36549 23.28183 35066 ft 471 kts 119°
2026-05-07 19:51 43.33538 23.36164 35059 ft 470 kts 119°
2026-05-07 19:51 43.30522 23.44136 35055 ft 471 kts 119°
2026-05-07 19:52 43.27498 23.52106 35071 ft 471 kts 119°
2026-05-07 19:52 43.24462 23.60088 35068 ft 473 kts 119°
2026-05-07 19:53 43.21409 23.68089 35061 ft 474 kts 120°
2026-05-07 19:53 43.18344 23.76101 35071 ft 475 kts 120°
2026-05-07 19:54 43.15266 23.84125 35063 ft 476 kts 120°
2026-05-07 19:54 43.12177 23.92153 35067 ft 477 kts 120°
2026-05-07 19:55 43.09086 24.00167 35070 ft 476 kts 120°
2026-05-07 19:55 43.05994 24.08158 35061 ft 474 kts 120°
2026-05-07 19:56 43.02908 24.16112 35069 ft 473 kts 120°
2026-05-07 19:56 42.99823 24.24042 35059 ft 472 kts 120°
2026-05-07 19:57 42.96743 24.31936 35067 ft 470 kts 120°
2026-05-07 19:57 42.93673 24.39784 35073 ft 467 kts 121°
2026-05-07 19:58 42.90615 24.47580 35071 ft 465 kts 121°
2026-05-07 19:58 42.87584 24.55290 35065 ft 463 kts 121°
2026-05-07 19:59 42.84541 24.63006 35044 ft 461 kts 121°
2026-05-07 19:59 42.81496 24.70704 35065 ft 462 kts 121°
2026-05-07 20:00 42.78437 24.78421 35071 ft 466 kts 121°
2026-05-07 20:00 42.75344 24.86210 35071 ft 468 kts 121°
2026-05-07 20:01 42.72244 24.93997 35062 ft 467 kts 121°
2026-05-07 20:01 42.69150 25.01750 35057 ft 466 kts 121°
2026-05-07 20:02 42.66057 25.09474 35053 ft 465 kts 121°
2026-05-07 20:02 42.62964 25.17179 35054 ft 464 kts 122°
2026-05-07 20:03 42.59873 25.24860 35054 ft 463 kts 122°
2026-05-07 20:03 42.56783 25.32518 35049 ft 462 kts 122°
2026-05-07 20:04 42.53689 25.40162 35056 ft 462 kts 122°
2026-05-07 20:04 42.50616 25.47739 35051 ft 461 kts 122°
2026-05-07 20:05 42.47523 25.55344 35048 ft 461 kts 122°
2026-05-07 20:05 42.44436 25.62914 35045 ft 460 kts 122°
2026-05-07 20:06 42.41335 25.70497 35038 ft 460 kts 121°
2026-05-07 20:06 42.38235 25.78062 35026 ft 460 kts 122°
2026-05-07 20:07 42.35126 25.85627 35036 ft 460 kts 122°
2026-05-07 20:07 42.32008 25.93195 35025 ft 461 kts 121°
2026-05-07 20:08 42.28881 26.00767 35038 ft 462 kts 121°
2026-05-07 20:08 42.25744 26.08345 35037 ft 463 kts 121°
2026-05-07 20:09 42.22592 26.15930 35041 ft 463 kts 122°
2026-05-07 20:10 42.17849 26.27304 35041 ft 464 kts 121°
2026-05-07 20:10 42.14681 26.34882 35041 ft 464 kts 121°
2026-05-07 20:11 42.11528 26.42408 35035 ft 450 kts 121°
2026-05-07 20:11 42.10033 26.45974 35025 ft 436 kts 121°
2026-05-07 20:11 42.08567 26.49466 35025 ft 422 kts 121°
2026-05-07 20:11 42.07145 26.52846 35035 ft 408 kts 121°
2026-05-07 20:12 42.05768 26.56114 35028 ft 396 kts 121°
2026-05-07 20:12 42.03086 26.62463 35068 ft 394 kts 122°
2026-05-07 20:13 42.00305 26.69030 35079 ft 412 kts 121°
2026-05-07 20:13 41.97476 26.75710 35054 ft 410 kts 121°
2026-05-07 20:14 41.94577 26.82266 35071 ft 406 kts 123°
2026-05-07 20:14 41.91638 26.88723 35058 ft 404 kts 123°
2026-05-07 20:15 41.88726 26.95154 35072 ft 402 kts 123°
2026-05-07 20:15 41.85816 27.01551 35082 ft 402 kts 123°
2026-05-07 20:16 41.82900 27.07954 35080 ft 403 kts 123°
2026-05-07 20:16 41.79938 27.14336 35092 ft 404 kts 126°
2026-05-07 20:17 41.76732 27.20521 35094 ft 405 kts 127°
2026-05-07 20:17 41.73520 27.26696 34983 ft 398 kts 126°
2026-05-07 20:17 41.71979 27.29696 34598 ft 390 kts 126°
2026-05-07 20:18 41.70417 27.32670 34019 ft 387 kts 131°
2026-05-07 20:18 41.68374 27.35038 32641 ft 397 kts 153°
2026-05-07 20:18 41.65797 27.36352 31254 ft 409 kts 168°
2026-05-07 20:18 41.63012 27.37255 30247 ft 414 kts 169°
2026-05-07 20:19 41.60306 27.38537 29357 ft 414 kts 150°
2026-05-07 20:19 41.58070 27.40923 28645 ft 409 kts 141°
2026-05-07 20:19 41.55901 27.43318 27933 ft 402 kts 143°
2026-05-07 20:19 41.53715 27.45616 27174 ft 398 kts 143°
2026-05-07 20:20 41.51542 27.47875 26422 ft 394 kts 143°
2026-05-07 20:20 41.49388 27.50122 25671 ft 392 kts 143°
2026-05-07 20:20 41.47260 27.52357 24991 ft 388 kts 143°
2026-05-07 20:20 41.45158 27.54576 24338 ft 383 kts 143°
2026-05-07 20:21 41.43079 27.56780 23703 ft 380 kts 143°
2026-05-07 20:21 41.41024 27.58963 22955 ft 376 kts 143°
2026-05-07 20:21 41.38992 27.61122 22254 ft 371 kts 143°
2026-05-07 20:21 41.36987 27.63252 21577 ft 366 kts 143°
2026-05-07 20:22 41.35008 27.65354 20913 ft 362 kts 142°
2026-05-07 20:22 41.33047 27.67433 20259 ft 358 kts 142°
2026-05-07 20:22 41.31109 27.69488 19616 ft 355 kts 142°
2026-05-07 20:22 41.29195 27.71515 18998 ft 351 kts 142°
2026-05-07 20:23 41.27293 27.73527 18388 ft 348 kts 142°
2026-05-07 20:23 41.25411 27.75518 17708 ft 344 kts 142°
2026-05-07 20:23 41.23548 27.77486 17049 ft 340 kts 142°
2026-05-07 20:23 41.21705 27.79432 16400 ft 337 kts 142°
2026-05-07 20:24 41.19884 27.81354 15768 ft 333 kts 142°
2026-05-07 20:24 41.18076 27.83260 15152 ft 330 kts 143°
2026-05-07 20:24 41.16287 27.85145 14548 ft 327 kts 143°
2026-05-07 20:24 41.14517 27.87009 13955 ft 324 kts 143°
2026-05-07 20:25 41.12762 27.88855 13307 ft 320 kts 143°
2026-05-07 20:25 41.11028 27.90678 12698 ft 316 kts 143°
2026-05-07 20:25 41.09312 27.92482 12097 ft 312 kts 143°
2026-05-07 20:25 41.07619 27.94259 11529 ft 308 kts 143°
2026-05-07 20:26 41.05950 27.96011 11075 ft 305 kts 143°
2026-05-07 20:26 41.04300 27.97741 10721 ft 299 kts 143°
2026-05-07 20:26 41.02696 27.99423 10387 ft 289 kts 143°
2026-05-07 20:26 41.01144 28.01050 10065 ft 281 kts 143°
2026-05-07 20:27 40.99622 28.02643 9737 ft 277 kts 143°
2026-05-07 20:27 40.98114 28.04219 9420 ft 276 kts 143°
2026-05-07 20:27 40.96610 28.05790 9111 ft 275 kts 143°
2026-05-07 20:27 40.95237 28.07542 8772 ft 277 kts 123°
2026-05-07 20:28 40.94621 28.09935 8485 ft 279 kts 95°
2026-05-07 20:28 40.94743 28.12504 8215 ft 282 kts 82°
2026-05-07 20:28 40.95044 28.15070 7891 ft 283 kts 81°
2026-05-07 20:28 40.95341 28.17640 7578 ft 282 kts 82°
2026-05-07 20:29 40.95620 28.20174 7268 ft 282 kts 82°
2026-05-07 20:29 40.95900 28.22774 6954 ft 282 kts 82°
2026-05-07 20:29 40.96173 28.25343 6645 ft 282 kts 82°
2026-05-07 20:29 40.96443 28.27908 6322 ft 281 kts 82°
2026-05-07 20:30 40.96710 28.30449 5992 ft 277 kts 82°
2026-05-07 20:30 40.96967 28.32905 5682 ft 269 kts 82°
2026-05-07 20:30 40.97222 28.35348 5383 ft 261 kts 82°
2026-05-07 20:30 40.97442 28.37706 5170 ft 258 kts 89°
2026-05-07 20:31 40.97035 28.39960 5127 ft 249 kts 119°
2026-05-07 20:31 40.96209 28.41903 5113 ft 236 kts 122°
2026-05-07 20:31 40.95387 28.43784 5125 ft 239 kts 122°
2026-05-07 20:31 40.94548 28.45701 5128 ft 242 kts 122°
2026-05-07 20:32 40.93722 28.47599 5121 ft 241 kts 122°
2026-05-07 20:32 40.92880 28.49542 5080 ft 247 kts 121°
2026-05-07 20:32 40.92020 28.51529 5041 ft 251 kts 121°
2026-05-07 20:32 40.91150 28.53538 5028 ft 252 kts 121°
2026-05-07 20:33 40.90283 28.55542 5019 ft 251 kts 121°
2026-05-07 20:33 40.89471 28.57584 5016 ft 251 kts 110°
2026-05-07 20:33 40.89396 28.59854 5023 ft 250 kts 77°
2026-05-07 20:33 40.89895 28.62050 5032 ft 250 kts 70°
2026-05-07 20:34 40.90479 28.64219 5022 ft 251 kts 69°
2026-05-07 20:34 40.91062 28.66392 5032 ft 251 kts 70°
2026-05-07 20:34 40.91734 28.68511 5019 ft 250 kts 53°
2026-05-07 20:34 40.93001 28.70009 5043 ft 244 kts 29°
2026-05-07 20:35 40.94475 28.71123 5033 ft 244 kts 25°
2026-05-07 20:35 40.95971 28.72193 5030 ft 245 kts 25°
2026-05-07 20:35 40.96959 28.72901 5016 ft 240 kts 24°
2026-05-07 20:35 40.98496 28.73452 5017 ft 223 kts 354°
2026-05-07 20:36 41.00026 28.73345 5029 ft 220 kts 355°
2026-05-07 20:36 41.01581 28.73324 5015 ft 221 kts 355°
2026-05-07 20:36 41.03117 28.73307 4780 ft 219 kts 355°
2026-05-07 20:36 41.04619 28.73279 4498 ft 214 kts 355°
2026-05-07 20:37 41.06093 28.73246 4217 ft 210 kts 354°
2026-05-07 20:37 41.07502 28.73214 3962 ft 205 kts 354°
2026-05-07 20:37 41.08914 28.73181 3695 ft 201 kts 354°
2026-05-07 20:37 41.10305 28.73148 3437 ft 198 kts 354°
2026-05-07 20:38 41.11675 28.73115 3143 ft 195 kts 353°
2026-05-07 20:38 41.13017 28.73086 2858 ft 190 kts 354°
2026-05-07 20:38 41.14292 28.73058 2654 ft 177 kts 353°
2026-05-07 20:38 41.15505 28.73028 2408 ft 170 kts 353°
2026-05-07 20:39 41.16654 28.73001 2193 ft 161 kts 353°
2026-05-07 20:39 41.17748 28.72975 1995 ft 156 kts 353°
2026-05-07 20:39 41.18820 28.72949 1783 ft 152 kts 353°
2026-05-07 20:39 41.19881 28.72924 1573 ft 153 kts 354°
2026-05-07 20:40 41.20942 28.72901 1387 ft 152 kts 355°
2026-05-07 20:40 41.21998 28.72871 1181 ft 152 kts 356°
2026-05-07 20:40 41.23051 28.72840 988 ft 151 kts 357°
2026-05-07 20:40 41.24110 28.72815 773 ft 153 kts 358°
2026-05-07 20:41 41.25166 28.72787 581 ft 153 kts 359°
2026-05-07 20:41 41.26219 28.72779 398 ft 150 kts 358°
2026-05-07 20:41 41.27219 28.72752 334 ft 134 kts 359°
2026-05-07 20:41 41.28002 28.72737 332 ft 91 kts 359°
2026-05-07 20:42 41.28487 28.72731 329 ft 48 kts
2026-05-07 20:42 41.28660 28.72819 333 ft 5 kts 27°
2026-05-07 20:42 41.28702 28.72848 330 ft 10 kts 27°
2026-05-07 20:42 41.28706 28.72948 332 ft 18 kts 166°